[[{"header":{"parameterUnit":"m.s-1","parameterCategory":1,"la1":30.2991,"la2":30.254,"lo1":-89.0895,"lo2":-89.0444,"dx":0.0017,"dy":0.0017,"nx":28,"ny":28,"refTime":"2022-12-24T09:00:00:Z","depth":0,"parameterNumber":2,"parameterNumberName":"U-component_of_WINDS"},"data":[0,0,0,0,0,0,0,0,0,0,0,0,0,0,0,0,0,0,0,0,0,0,0,0,0,0,0,0,0,0,0,0,0,0,0,0,0,0,0,0,0,0,0,0,0,0,0,0,0,0,0,0,0,0,0,0,0,0,1.4801,1.48,0,1.4752,1.4751,1.4751,1.4712,1.4712,1.4712,1.4711,1.4659,1.4658,1.4657,0,0,0,0,0,0,0,0,0,0,0,0,0,1.4858,1.4857,1.4801,1.48,1.4799,1.4752,1.4751,1.4751,1.4712,1.4712,1.4711,1.4711,1.4659,1.4658,1.4657,0,0,0,0,0,0,0,0,0,0,0,0,0,1.4824,1.4857,1.4801,1.4775,1.4772,1.4752,1.4751,1.4751,1.4712,1.4712,1.4711,1.4711,1.4659,1.4658,1.4656,1.4658,0,0,1.4652,1.4651,0,0,0,0,0,0,0,0,1.4826,1.4822,1.4779,1.4776,1.4773,1.4738,1.4752,1.4719,1.4713,1.4735,1.4711,1.4711,1.4685,1.4682,1.4674,1.4655,1.4653,1.4651,1.465,1.465,1.4649,0,0,0,0,0,0,0,1.4828,1.4824,1.4781,1.4779,1.4775,1.4765,1.4759,1.4746,1.4714,1.4733,1.473,1.4725,1.4683,1.4675,1.4672,1.4652,1.4651,1.465,1.4649,1.4648,1.4633,1.4633,0,0,0,0,0,0,1.4835,1.4826,1.4783,1.478,1.4799,1.4764,1.4758,1.475,1.4714,1.4708,1.4725,1.4723,1.4678,1.4674,1.467,1.4669,1.465,1.4648,1.4647,1.4632,1.4633,1.4634,0,0,0,0,0,0,1.4836,1.4832,1.4785,1.4802,1.4795,1.4764,1.4755,1.4749,1.474,1.4708,1.4702,1.4723,1.4677,1.4672,1.4661,1.4667,1.4648,1.4646,1.4632,1.4633,1.4633,1.4667,0,0,0,0,0,0,1.4838,1.4832,1.4833,1.4802,1.4795,1.4778,1.4755,1.4748,1.4738,1.4735,1.4704,1.4699,1.4677,1.4664,1.466,1.4664,1.4645,1.4631,1.4632,1.4633,1.4665,1.4669,1.4672,0,0,0,0,0,1.484,1.4844,1.4833,1.4828,1.4795,1.4778,1.4773,1.4749,1.4739,1.4739,1.4718,1.4699,1.4667,1.4663,1.4658,1.4662,1.4631,1.4632,1.4633,1.4664,1.4668,1.4672,0,0,0,0,0,0,1.4875,1.4839,1.4827,1.4821,1.4803,1.4772,1.4771,1.4754,1.4738,1.4736,1.4705,1.4699,1.4691,1.4675,1.4672,1.4662,1.4646,1.4647,1.4672,1.4676,1.4679,1.4682,1.4644,0,0,0,0,0,1.4882,1.4872,1.4841,1.4839,1.483,1.4802,1.4794,1.4777,1.4757,1.4749,1.4727,1.4707,1.4693,1.4683,1.4668,1.4664,1.4656,1.4664,1.4667,1.467,1.467,1.4666,1.4669,1.4637,1.4637,1.4637,0,0,1.4896,1.4875,1.487,1.4845,1.4829,1.4819,1.4796,1.4786,1.4778,1.4747,1.4735,1.4719,1.4695,1.4687,1.4683,1.4674,1.4678,1.4672,1.4674,1.4673,1.4668,1.4671,1.4674,1.4638,1.4638,1.4638,0,0,1.4915,1.49,1.4895,1.488,1.4857,1.4838,1.4838,1.4809,1.4797,1.4786,1.4762,1.4752,1.4727,1.4711,1.47,1.4715,1.4697,1.4711,1.4728,1.4724,1.4727,1.4729,1.4733,1.4735,1.4711,1.4711,1.4711,0,1.4935,1.4919,1.4895,1.4887,1.4876,1.4849,1.4844,1.483,1.4803,1.4796,1.4787,1.4756,1.4738,1.4726,1.473,1.4722,1.4719,1.4713,1.4728,1.473,1.4732,1.4736,1.4737,1.4713,1.4713,1.4713,1.4713,0,1.4945,1.4934,1.4934,1.4909,1.4898,1.4892,1.4866,1.4858,1.4842,1.4825,1.4813,1.4791,1.477,1.4767,1.4751,1.4752,1.4748,1.4734,1.4718,1.4737,1.474,1.4741,1.4716,1.4715,1.4715,1.4714,0,0,1.4983,1.4946,1.4946,1.4934,1.4907,1.4898,1.4891,1.4872,1.4865,1.4848,1.484,1.482,1.4808,1.4795,1.4777,1.4774,1.4787,1.4761,1.476,1.4766,1.4786,1.4796,1.4798,1.4776,1.4776,1.4776,1.4788,0,1.4997,1.4983,1.4961,1.4953,1.4943,1.4918,1.4911,1.4893,1.4877,1.4865,1.4847,1.4833,1.4818,1.481,1.4807,1.4786,1.479,1.4785,1.4767,1.4766,1.4772,1.48,1.4809,1.4822,1.4789,1.4789,1.479,0,1.5012,1.4997,1.4988,1.4962,1.4957,1.4951,1.4932,1.4922,1.4901,1.4889,1.4876,1.4857,1.4847,1.4834,1.4819,1.4816,1.4808,1.4797,1.4797,1.4793,1.4778,1.4795,1.4825,1.4826,1.4791,1.4791,1.4791,0,1.504,1.5017,1.5009,1.5,1.4969,1.4966,1.4953,1.4932,1.4922,1.4906,1.4899,1.4881,1.4871,1.4858,1.4835,1.4827,1.4822,1.4807,1.4811,1.4812,1.481,1.481,1.4837,1.4807,1.4807,1.4807,1.4807,0,1.5057,1.5052,1.5021,1.5015,1.5009,1.4985,1.4979,1.4964,1.4946,1.4937,1.4914,1.4906,1.4877,1.4865,1.4847,1.4837,1.4833,1.4822,1.4817,1.4823,1.4825,1.4816,1.4814,1.4807,1.4807,1.4807,1.4807,0,1.5086,1.5065,1.5054,1.5027,1.502,1.5017,1.4993,1.4986,1.497,1.4958,1.4954,1.4927,1.4912,1.4888,1.4866,1.4854,1.4847,1.4839,1.4854,1.4851,1.4856,1.4855,1.4877,1.4879,1.4849,1.4849,1.4849,0,1.5098,1.5094,1.5067,1.506,1.5048,1.5036,1.5027,1.5003,1.4993,1.497,1.4966,1.495,1.4935,1.4912,1.489,1.4873,1.4864,1.4873,1.4861,1.4868,1.4863,1.4863,1.4862,1.4875,1.4876,1.4876,1.4877,0,1.5121,1.5111,1.5098,1.5082,1.5071,1.5057,1.5042,1.5037,1.5009,1.5,1.4985,1.4974,1.4952,1.4935,1.4915,1.4901,1.4884,1.4881,1.4881,1.4886,1.4894,1.4889,1.486,1.488,1.488,1.4879,1.4879,1.4879,1.5141,1.5136,1.5116,1.5103,1.5089,1.5076,1.5068,1.5051,1.5038,1.5019,1.5006,1.4992,1.4971,1.4943,1.493,1.4918,1.491,1.491,1.491,1.491,1.4912,1.4898,1.4914,1.4914,1.4914,1.4914,1.4914,0,1.5162,1.5148,1.5136,1.5116,1.5105,1.5092,1.5075,1.5066,1.5054,1.5037,1.5024,1.5007,1.4991,1.4968,1.4951,1.4945,1.4937,1.4941,1.4941,1.4938,1.492,1.4921,1.4948,1.4948,1.4948,1.4948,1.4948,1.4948,1.5171,1.5162,1.515,1.5134,1.512,1.5107,1.5098,1.5085,1.5071,1.5054,1.5041,1.5027,1.5007,1.4988,1.4973,1.4967,1.4961,1.4967,1.4958,1.4942,1.4939,1.4936,1.4937,1.4967,1.4967,1.4977,1.4977,1.4977]},{"header":{"parameterUnit":"m.s-1","parameterCategory":1,"la1":30.2991,"la2":30.254,"lo1":-89.0895,"lo2":-89.0444,"dx":0.0017,"dy":0.0017,"nx":28,"ny":28,"refTime":"2022-12-24T09:00:00:Z","depth":0,"parameterNumber":3,"parameterNumberName":"V-component_of_WINDS"},"data":[0,0,0,0,0,0,0,0,0,0,0,0,0,0,0,0,0,0,0,0,0,0,0,0,0,0,0,0,0,0,0,0,0,0,0,0,0,0,0,0,0,0,0,0,0,0,0,0,0,0,0,0,0,0,0,0,0,0,-4.8327,-4.8328,0,-4.8462,-4.8464,-4.8465,-4.8424,-4.8421,-4.8418,-4.8416,-4.855,-4.8556,-4.8562,0,0,0,0,0,0,0,0,0,0,0,0,0,-4.8026,-4.8032,-4.8326,-4.8328,-4.833,-4.8462,-4.8464,-4.8466,-4.8425,-4.8421,-4.8418,-4.8414,-4.8548,-4.8555,-4.8563,0,0,0,0,0,0,0,0,0,0,0,0,0,-4.8158,-4.8034,-4.8326,-4.8325,-4.8327,-4.8462,-4.8464,-4.8466,-4.8425,-4.8421,-4.8417,-4.8413,-4.8546,-4.8555,-4.8564,-4.8707,0,0,-4.8592,-4.8596,0,0,0,0,0,0,0,0,-4.8151,-4.8169,-4.8324,-4.8326,-4.8327,-4.8422,-4.8407,-4.8547,-4.8426,-4.8388,-4.8416,-4.8411,-4.8511,-4.8523,-4.8557,-4.8713,-4.8719,-4.8593,-4.8599,-4.8603,-4.8606,0,0,0,0,0,0,0,-4.8142,-4.8163,-4.838,-4.8326,-4.8328,-4.8316,-4.833,-4.8433,-4.8471,-4.8391,-4.8388,-4.8405,-4.8511,-4.8548,-4.856,-4.8721,-4.8593,-4.8601,-4.8607,-4.8611,-4.8998,-4.9002,0,0,0,0,0,0,-4.8132,-4.8156,-4.8376,-4.8384,-4.8227,-4.8325,-4.8341,-4.8396,-4.847,-4.8477,-4.8408,-4.8403,-4.8534,-4.8549,-4.8565,-4.8735,-4.8603,-4.8612,-4.8617,-4.8993,-4.8999,-4.9004,0,0,0,0,0,0,-4.8126,-4.8152,-4.837,-4.827,-4.8296,-4.8335,-4.8397,-4.8401,-4.8438,-4.8483,-4.8489,-4.844,-4.8532,-4.8551,-4.8671,-4.8739,-4.8616,-4.8624,-4.8988,-4.8995,-4.9001,-4.9078,0,0,0,0,0,0,-4.8117,-4.815,-4.8206,-4.8271,-4.8302,-4.8477,-4.8401,-4.8406,-4.8455,-4.8449,-4.8515,-4.8522,-4.853,-4.8658,-4.8681,-4.875,-4.8632,-4.8982,-4.8991,-4.8999,-4.907,-4.9087,-4.9102,0,0,0,0,0,-4.8107,-4.8222,-4.8209,-4.8236,-4.8373,-4.8481,-4.8498,-4.8507,-4.8461,-4.8516,-4.8545,-4.852,-4.8728,-4.867,-4.8696,-4.8769,-4.8977,-4.8988,-4.8999,-4.9063,-4.9084,-4.9102,0,0,0,0,0,0,-4.8163,-4.823,-4.8217,-4.8357,-4.8414,-4.8474,-4.8544,-4.8529,-4.8599,-4.8589,-4.8595,-4.8611,-4.8733,-4.8763,-4.8697,-4.891,-4.8846,-4.8862,-4.8886,-4.8906,-4.8922,-4.8912,-4.8639,0,0,0,0,0,-4.8192,-4.8275,-4.8329,-4.8447,-4.8476,-4.8506,-4.8553,-4.8554,-4.8613,-4.8636,-4.8673,-4.8729,-4.8807,-4.8859,-4.8933,-4.9074,-4.9087,-4.9137,-4.9153,-4.9166,-4.9179,-4.9254,-4.9276,-4.9039,-4.9039,-4.9038,0,0,-4.8252,-4.8299,-4.8351,-4.846,-4.8504,-4.8588,-4.8526,-4.8618,-4.868,-4.8649,-4.8765,-4.8795,-4.8857,-4.8988,-4.9048,-4.9017,-4.9248,-4.9179,-4.9189,-4.9196,-4.9267,-4.929,-4.931,-4.9046,-4.9044,-4.9043,0,0,-4.8404,-4.8449,-4.8552,-4.8597,-4.8665,-4.8683,-4.8708,-4.8771,-4.8789,-4.8906,-4.8884,-4.8957,-4.9091,-4.9137,-4.9177,-4.9345,-4.9324,-4.9369,-4.9452,-4.9525,-4.9544,-4.9561,-4.9619,-4.964,-4.9383,-4.9383,-4.9383,0,-4.8469,-4.8598,-4.8606,-4.87,-4.8747,-4.8725,-4.8827,-4.887,-4.8958,-4.8991,-4.8955,-4.9123,-4.9164,-4.9304,-4.9345,-4.9379,-4.9406,-4.9361,-4.9541,-4.9558,-4.9573,-4.9629,-4.9651,-4.9388,-4.9387,-4.9387,-4.9386,0,-4.8674,-4.8763,-4.8837,-4.8924,-4.898,-4.9078,-4.9099,-4.9154,-4.9151,-4.9172,-4.929,-4.9338,-4.9421,-4.9454,-4.9452,-4.9594,-4.9572,-4.9539,-4.9475,-4.9601,-4.9653,-4.9675,-4.9395,-4.9393,-4.9392,-4.9391,0,0,-4.8865,-4.8955,-4.8982,-4.902,-4.9093,-4.9161,-4.9257,-4.9339,-4.9386,-4.9447,-4.9526,-4.964,-4.961,-4.9656,-4.9658,-4.9722,-4.985,-4.9681,-4.9682,-4.9709,-5.0008,-5.0031,-5.0056,-4.9836,-4.9841,-4.9844,-5.0002,0,-4.9022,-4.9193,-4.9203,-4.9356,-4.9437,-4.9416,-4.9499,-4.9552,-4.9574,-4.9645,-4.9669,-4.9749,-4.9704,-4.9731,-4.9794,-4.9821,-4.991,-4.981,-4.9908,-4.9911,-4.9892,-5.0084,-5.0109,-5.0256,-5.0022,-5.0026,-5.0028,0,-4.9229,-4.9297,-4.946,-4.9519,-4.9554,-4.9629,-4.9704,-4.9773,-4.9831,-4.9842,-4.9894,-4.9886,-4.9982,-4.9915,-5.0046,-4.9978,-5.0019,-5.0038,-5.0044,-5.0052,-4.9977,-5.0096,-5.0303,-5.0325,-5.0061,-5.0058,-5.0056,0,-4.935,-4.9483,-4.9597,-4.963,-4.9704,-4.9756,-4.9789,-4.9843,-4.9891,-4.9957,-4.9988,-5.0063,-5.0104,-5.0162,-5.0174,-5.0124,-5.0304,-5.0239,-5.0315,-5.0315,-5.0353,-5.035,-5.0568,-5.0381,-5.0381,-5.0381,-5.038,0,-4.9524,-4.9624,-4.9652,-4.9722,-4.9832,-4.9841,-4.995,-4.9978,-5.0027,-5.01,-5.0086,-5.0155,-5.0167,-5.0238,-5.0248,-5.0354,-5.0373,-5.0384,-5.0385,-5.0384,-5.0383,-5.041,-5.04,-5.0387,-5.0385,-5.0384,-5.0383,0,-4.9678,-4.9702,-4.9824,-4.9883,-4.99,-4.9979,-5.0028,-5.0094,-5.0115,-5.0208,-5.023,-5.0262,-5.0345,-5.0363,-5.0461,-5.0467,-5.0593,-5.0584,-5.0574,-5.0572,-5.0647,-5.0639,-5.0889,-5.0922,-5.0715,-5.0717,-5.0718,0,-4.9787,-4.9864,-4.9931,-4.998,-5.0015,-5.0094,-5.0144,-5.0155,-5.0207,-5.0278,-5.0335,-5.0416,-5.0482,-5.0615,-5.0646,-5.072,-5.0712,-5.0795,-5.0723,-5.072,-5.0712,-5.0707,-5.0713,-5.0808,-5.081,-5.0812,-5.0814,0,-4.9978,-4.9985,-5.0058,-5.0135,-5.0194,-5.0255,-5.0312,-5.0353,-5.0371,-5.043,-5.0515,-5.0566,-5.0666,-5.0747,-5.0821,-5.0852,-5.0836,-5.0836,-5.0857,-5.0857,-5.0847,-5.0852,-5.0609,-5.083,-5.0829,-5.0827,-5.0826,-5.0826,-5.0112,-5.0178,-5.0236,-5.0316,-5.0361,-5.0415,-5.0479,-5.0508,-5.058,-5.0663,-5.0665,-5.0757,-5.0811,-5.091,-5.0946,-5.1017,-5.0991,-5.1022,-5.103,-5.1037,-5.1043,-5.0837,-5.103,-5.103,-5.103,-5.1029,-5.1029,0,-5.03,-5.0336,-5.0411,-5.0492,-5.0555,-5.0535,-5.0598,-5.0651,-5.0733,-5.0786,-5.0851,-5.0948,-5.1025,-5.1062,-5.1138,-5.1188,-5.1182,-5.1207,-5.1203,-5.121,-5.1063,-5.1036,-5.1211,-5.1211,-5.121,-5.121,-5.121,-5.121,-5.0406,-5.0516,-5.053,-5.0662,-5.0696,-5.0788,-5.0825,-5.0873,-5.0915,-5.1025,-5.109,-5.1113,-5.1159,-5.1238,-5.1308,-5.1316,-5.1344,-5.1373,-5.1378,-5.1239,-5.1221,-5.1203,-5.1178,-5.1379,-5.138,-5.1519,-5.1521,-5.1522]}]]